This is the latest recevied weather packets stored in our database for station/object KF0RZX-13. If no packets are shown the sender has not sent any weather packets the latest 10 day(s).
| Time | Temp. | Humidity | Pressure | Rain* | Wind** | Luminosity | Snow |
|---|---|---|---|---|---|---|---|
| 1787878081 | 31.11° C | 31% | 1020.7 hPa | 0 mm | - | - | - |
| 1787876276 | 31.11° C | 29% | 1021 hPa | 0 mm | - | - | - |
| 1787874472 | 32.22° C | 28% | 1021 hPa | 0 mm | - | - | - |
| 1787872666 | 32.22° C | 28% | 1021 hPa | 0 mm | - | - | - |
| 1787870862 | 32.22° C | 29% | 1021.3 hPa | 0 mm | - | - | - |
| 1787869057 | 32.22° C | 29% | 1022 hPa | 0 mm | - | - | - |
| 1787867247 | 32.22° C | 29% | 1022.4 hPa | 0 mm | - | - | - |
| 1787865442 | 31.11° C | 33% | 1022.7 hPa | 0 mm | - | - | - |
| 1787863636 | 31.11° C | 33% | 1023 hPa | 0 mm | - | - | - |
| 1787861831 | 30° C | 38% | 1023.4 hPa | 0 mm | - | - | - |
| 1787860026 | 30° C | 38% | 1023.7 hPa | 0 mm | - | - | - |
| 1787858224 | 28.89° C | 40% | 1024 hPa | 0 mm | - | - | - |
| 1787856416 | 28.89° C | 37% | 1024.4 hPa | 0 mm | - | - | - |
| 1787854611 | 27.78° C | 42% | 1024.4 hPa | 0 mm | - | - | - |
| 1787852806 | 27.22° C | 45% | 1024.7 hPa | 0 mm | - | - | - |
| 1787851001 | 26.11° C | 51% | 1024.7 hPa | 0 mm | - | - | - |
| 1787849203 | 25° C | 54% | 1024.7 hPa | 0 mm | - | - | - |
| 1787847376 | 23.89° C | 54% | 1024.7 hPa | 0 mm | - | - | - |
| 1787845571 | 22.78° C | 57% | 1024.7 hPa | 0 mm | - | - | - |
| 1787843767 | 21.11° C | 69% | 1024.7 hPa | 0 mm | - | - | - |
| 1787840136 | 17.78° C | 83% | 1024.7 hPa | 0 mm | - | - | - |
| 1787838335 | 17.22° C | 88% | 1024.7 hPa | 0 mm | - | - | - |
| 1787836513 | 13.89° C | 100% | 1024.4 hPa | 0 mm | - | - | - |
| 1787834701 | 12.78° C | 100% | 1024 hPa | 0 mm | - | - | - |
| 1787832896 | 13.89° C | 94% | 1023.7 hPa | 0 mm | - | - | - |
* Rain latest hour (hover to see other rain measurements)
** Current wind speed in m/s (hover to see current wind gust speed)